Home   Weather   Lexington   Past weeks

Flag for USA Past Weather in Lexington, North Carolina, USA — Yesterday and Last 2 Weeks

Now
71 °F

Passing clouds.


Feels Like: 68 °F
Forecast: 62 / 74 °F
Wind: 6 mph from South

Location: Davidson County Airport

Current Time: May 1, 2017 at 12:54:00 am

Latest Report: May 1, 2017 at 12:35 am


Visibility: 10 mi

Pressure: 30.07 "Hg

Humidity: 89%

Dew Point: 67 °F

Location of LexingtonLocation

Past Weather in Lexington — Graph

°F

Lexington Temperature Yesterday

Maximum temperature yesterday: 82 °F (at 2:15 pm)
Minimum temperature yesterday: 67 °F (at 6:55 am)
Average temperature yesterday: 74 °F

High & Low Weather Summary for the Past Weeks

 TemperatureHumidityPressure
High86 °F (Apr 21, 2:35 pm)100% (Apr 20, 12:55 am)30.39 "Hg (Apr 20, 12:55 am)
Low49 °F (Apr 23, 7:35 am)32% (Apr 22, 4:35 pm)29.63 "Hg (Apr 25, 4:35 am)
Average65 °F84%30.01 "Hg
* Reported Apr 15 11:00 pm — Apr 30 11:35 pm, Lexington, Weather by CustomWeather, © 2017

Note: Actual official high and low records may vary slightly from our data, if they occured in-between our weather recording intervals... More about our weather records

Advertising

Lexington Weather History for the Previous 24 Hours

Scroll right to see more
 ConditionsComfort  
Time TempWeatherWind HumidityBarometerVisibility
11:35 pm
Sun, Apr 30
72 °FClear.7 mph85%30.07 "Hg10 mi
11:15 pm72 °FPassing clouds.6 mph84%30.07 "Hg10 mi
10:55 pm73 °FPartly cloudy.6 mph85%30.08 "Hg10 mi
10:35 pm73 °FPassing clouds.7 mph85%30.08 "Hg10 mi
10:15 pm73 °FPassing clouds.6 mph86%30.08 "Hg10 mi
9:35 pm73 °FPartly cloudy.5 mph87%30.08 "Hg10 mi
9:15 pm74 °FPartly cloudy.3 mph85%30.08 "Hg10 mi
8:15 pm74 °FPartly cloudy.5 mph82%30.08 "Hg10 mi
7:55 pm75 °FCloudy.3 mph81%30.08 "Hg10 mi
7:35 pm75 °FCloudy.6 mph81%30.08 "Hg10 mi
7:15 pm76 °FPartly sunny.5 mph77%30.08 "Hg10 mi
6:55 pm77 °FScattered clouds.5 mph72%30.07 "Hg10 mi
6:35 pm78 °FPartly sunny.7 mph72%30.08 "Hg10 mi
6:15 pm78 °FSunny.5 mph71%30.08 "Hg10 mi
5:55 pm79 °FScattered clouds.6 mph67%30.08 "Hg10 mi
5:35 pm79 °FScattered clouds.6 mph68%30.08 "Hg10 mi
5:15 pm78 °FSunny.5 mph69%30.09 "Hg10 mi
4:55 pm78 °FScattered clouds.9 mph73%30.10 "Hg10 mi
4:35 pm76 °FMore clouds than sun.5 mph76%30.10 "Hg10 mi
4:15 pm74 °FCloudy.5 mph80%30.12 "Hg10 mi
3:35 pm79 °FBroken clouds.5 mph64%30.13 "Hg10 mi
3:15 pm82 °FScattered clouds.8 mph58%30.13 "Hg10 mi
2:55 pm80 °FBroken clouds.5 mph60%30.13 "Hg10 mi
2:35 pm81 °FScattered clouds.7 mph57%30.14 "Hg10 mi
2:15 pm82 °FScattered clouds.9 mph57%30.15 "Hg10 mi
1:55 pm80 °FScattered clouds.7 mph59%30.16 "Hg10 mi
1:35 pm81 °FScattered clouds.10 mph60%30.17 "Hg10 mi
1:15 pm80 °FSunny.8 mph61%30.17 "Hg10 mi
12:55 pm80 °FSunny.8 mph61%30.18 "Hg10 mi
12:35 pm80 °FScattered clouds.8 mph63%30.19 "Hg10 mi
12:15 pm78 °FBroken clouds.10 mph67%30.19 "Hg10 mi
11:55 am78 °FBroken clouds.5 mph67%30.19 "Hg10 mi
11:15 am76 °FPartly sunny.5 mph74%30.18 "Hg10 mi
10:55 am75 °FBroken clouds.5 mph75%30.17 "Hg10 mi
10:35 am76 °FScattered clouds.8 mph73%30.18 "Hg10 mi
10:15 am74 °FBroken clouds.9 mph76%30.18 "Hg10 mi
9:55 am74 °FScattered clouds.8 mph78%30.18 "Hg10 mi
9:35 am73 °FScattered clouds.6 mph83%30.17 "Hg10 mi
8:55 am71 °FOvercast.5 mph90%30.18 "Hg10 mi
8:35 am70 °FPartly sunny.5 mph92%30.18 "Hg10 mi
8:15 am68 °FScattered clouds.5 mph96%30.19 "Hg10 mi
7:55 am67 °FSunny.5 mph99%30.19 "Hg7 mi
7:35 am67 °FFog.No wind99%30.19 "Hg5 mi
7:15 am67 °FFog.No wind100%30.19 "Hg5 mi
6:55 am67 °FScattered clouds.No wind100%30.19 "Hg7 mi
6:35 am67 °FBroken clouds.No wind99%30.18 "Hg10 mi
6:15 am67 °FMostly cloudy.3 mph99%30.17 "Hg10 mi
5:55 am67 °FPassing clouds.No wind99%30.16 "Hg10 mi
5:35 am67 °FPassing clouds.5 mph99%30.15 "Hg10 mi
5:15 am67 °FPassing clouds.3 mph100%30.14 "Hg7 mi
4:55 am67 °FClear.3 mph100%30.14 "Hg7 mi
4:35 am67 °FClear.3 mph99%30.14 "Hg7 mi
4:15 am68 °FClear.5 mph100%30.14 "Hg10 mi
3:55 am68 °FClear.No wind99%30.14 "Hg7 mi
3:35 am68 °FClear.No wind98%30.15 "Hg10 mi
3:15 am69 °FClear.3 mph96%30.14 "Hg10 mi
2:55 am70 °FClear.5 mph94%30.15 "Hg10 mi
2:35 am70 °FClear.3 mph94%30.16 "Hg10 mi
1:55 am71 °FClear.No wind92%30.15 "Hg10 mi
1:35 am72 °FClear.3 mph90%30.15 "Hg10 mi
1:15 am72 °FClear.No wind90%30.15 "Hg10 mi
12:55 am72 °FClear.3 mph88%30.16 "Hg10 mi
12:35 am72 °FClear.5 mph88%30.16 "Hg10 mi
12:15 am72 °FClear.3 mph86%30.15 "Hg10 mi
Weather by CustomWeather, © 2017

See weather overviewHow to use our weather pages